GW3595 Weather Reports


Display with metric or nautical units.
time (UTC)temp
F
wind
direction
speed
MPH
gust
MPH
rain 1hr
in
rain 24hr
in
rain mn
in
humidity
%
barometer
mb
20260505153205 70 222 7.0 13.0 0.00 0.00 0.00 45 1007.9
20260505152204 70 156 6.0 12.0 0.00 0.00 0.00 46 1007.9
20260505151704 70 211 6.0 12.0 0.00 0.00 0.00 46 1008.0
20260505151205 70 236 5.0 12.0 0.00 0.00 0.00 46 1008.0
20260505150704 70 163 6.0 12.0 0.00 0.00 0.00 46 1007.9
20260505150205 70 151 5.0 12.0 0.00 0.00 0.00 46 1008.1
20260505140205 71 219 7.0 15.0 0.00 0.00 0.00 44 1008.3
20260505130229 73 0 8.0 15.0 0.00 0.00 0.00 38 1008.2
20260505123704 75 205 7.0 11.0 0.00 0.00 0.00 34 1008.1
20260505123205 75 187 5.0 11.0 0.00 0.00 0.00 35 1008.1
20260505122205 75 159 5.0 15.0 0.00 0.00 0.00 36 1008.3
20260505121704 74 178 6.0 20.0 0.00 0.00 0.00 36 1008.3
20260505121205 75 180 7.0 20.0 0.00 0.00 0.00 36 1008.4
20260505120705 76 274 7.0 20.0 0.00 0.00 0.00 35 1008.4
20260505120204 76 198 7.0 13.0 0.00 0.00 0.00 34 1008.4
20260505115705 76 242 6.0 14.0 0.00 0.00 0.00 36 1008.3
20260505114705 75 206 7.0 16.0 0.00 0.00 0.00 35 1008.1
20260505114204 76 196 7.0 16.0 0.00 0.00 0.00 35 1008.3
20260505113704 76 273 7.0 14.0 0.00 0.00 0.00 35 1008.3
20260505113205 76 265 7.0 19.0 0.00 0.00 0.00 34 1008.3
20260505112704 77 271 7.0 19.0 0.00 0.00 0.00 33 1008.2
20260505112205 77 237 8.0 19.0 0.00 0.00 0.00 34 1008.2
20260505111704 78 212 6.0 18.0 0.00 0.00 0.00 33 1008.3
20260505111205 77 209 6.0 16.0 0.00 0.00 0.00 35 1008.3
20260505110704 76 169 8.0 16.0 0.00 0.00 0.00 34 1008.3
20260505110205 76 143 7.0 16.0 0.00 0.00 0.00 34 1008.3
20260505102205 76 167 7.0 19.0 0.00 0.00 0.00 31 1008.7
20260505101704 76 132 6.0 19.0 0.00 0.00 0.00 30 1008.7
20260505101205 76 182 8.0 19.0 0.00 0.00 0.00 30 1008.5
20260505100724 76 225 7.0 19.0 0.00 0.00 0.00 31 1008.6
20260505100205 76 224 7.0 18.0 0.00 0.00 0.00 32 1008.7
20260505095704 75 157 8.0 18.0 0.00 0.00 0.00 31 1008.7
20260505095205 76 168 7.0 15.0 0.00 0.00 0.00 31 1008.7
20260505094704 75 153 8.0 19.0 0.00 0.00 0.00 31 1008.7
20260505094205 75 186 8.0 19.0 0.00 0.00 0.00 31 1008.8
20260505093205 75 192 7.0 17.0 0.00 0.00 0.00 31 1008.8
20260505092704 75 182 6.0 17.0 0.00 0.00 0.00 31 1008.8
20260505092205 75 138 6.0 17.0 0.00 0.00 0.00 34 1008.7
20260505091705 75 155 5.0 12.0 0.00 0.00 0.00 34 1008.7
20260505091205 74 201 6.0 13.0 0.00 0.00 0.00 33 1008.8
20260505090704 75 132 7.0 15.0 0.00 0.00 0.00 33 1008.9
20260505085205 74 181 5.0 13.0 0.00 0.00 0.00 34 1008.9
20260505084704 73 165 6.0 13.0 0.00 0.00 0.00 34 1008.9
20260505084205 73 148 6.0 13.0 0.00 0.00 0.00 35 1008.9
20260505083704 72 100 6.0 12.0 0.00 0.00 0.00 35 1008.9
20260505083205 73 146 5.0 12.0 0.00 0.00 0.00 35 1009.0
20260505082704 73 113 4.0 11.0 0.00 0.00 0.00 37 1009.0
20260505082205 73 165 3.0 10.0 0.00 0.00 0.00 37 1009.0
20260505081705 72 103 3.0 10.0 0.00 0.00 0.00 39 1009.1
20260505081204 71 77 3.0 8.0 0.00 0.00 0.00 40 1009.2
20260505080705 70 219 3.0 6.0 0.00 0.00 0.00 43 1009.2
20260505080204 70 155 2.0 6.0 0.00 0.00 0.00 43 1009.3
20260505075704 71 319 1.0 5.0 0.00 0.00 0.00 43 1009.4
20260505075204 68 65 1.0 5.0 0.00 0.00 0.00 50 1009.5
20260505074704 67 119 2.0 5.0 0.00 0.00 0.00 50 1009.5
20260505074205 67 61 3.0 5.0 0.00 0.00 0.00 51 1009.6
20260505073704 66 70 2.0 5.0 0.00 0.00 0.00 53 1009.7
20260505073205 67 88 2.0 5.0 0.00 0.00 0.00 52 1009.7
20260505072704 67 64 2.0 5.0 0.00 0.00 0.00 51 1009.8
20260505072205 66 75 2.0 5.0 0.00 0.00 0.00 52 1009.8
20260505071205 65 50 2.0 6.0 0.00 0.00 0.00 55 1009.9
20260505070728 64 88 2.0 6.0 0.00 0.00 0.00 55 1010.0
20260505070205 63 59 2.0 5.0 0.00 0.00 0.00 58 1010.1
20260505065204 63 90 2.0 6.0 0.00 0.00 0.00 57 1010.2
20260505064705 62 53 2.0 6.0 0.00 0.00 0.00 60 1010.4
20260505064204 61 102 2.0 6.0 0.00 0.00 0.00 60 1010.4
20260505063705 61 99 2.0 6.0 0.00 0.00 0.00 61 1010.4
20260505063204 60 64 2.0 7.0 0.00 0.00 0.00 62 1010.4
20260505062705 59 85 3.0 7.0 0.00 0.00 0.00 62 1010.4
20260505062204 59 86 3.0 8.0 0.00 0.00 0.00 61 1010.5
20260505061704 59 58 4.0 8.0 0.00 0.00 0.00 63 1010.4
20260505061205 59 65 4.0 7.0 0.00 0.00 0.00 63 1010.5
20260505060704 59 61 3.0 7.0 0.00 0.00 0.00 63 1010.5
20260505060205 58 78 3.0 7.0 0.00 0.00 0.00 64 1010.6
20260505055704 57 83 3.0 6.0 0.00 0.00 0.00 66 1010.6
20260505055205 56 88 3.0 6.0 0.00 0.00 0.00 68 1010.6
20260505054704 56 66 3.0 6.0 0.00 0.00 0.00 68 1010.6
20260505054204 56 71 2.0 5.0 0.00 0.00 0.00 70 1010.7
20260505053704 55 94 2.0 6.0 0.00 0.00 0.00 69 1010.7
20260505053205 55 60 3.0 6.0 0.00 0.00 0.00 70 1010.7
20260505052705 54 0 3.0 5.0 0.00 0.00 0.00 70 1010.7
20260505052205 54 208 3.0 5.0 0.00 0.00 0.00 71 1010.8
20260505051704 54 0 2.0 5.0 0.00 0.00 0.00 72 1010.7
20260505050704 53 0 3.0 5.0 0.00 0.00 0.00 74 1010.8
20260505050205 53 0 3.0 5.0 0.00 0.00 0.00 75 1010.7
20260505041704 47 0 1.0 3.0 0.00 0.00 0.00 83 1010.7
20260505041205 48 0 1.0 3.0 0.00 0.00 0.00 83 1010.7
20260505040705 48 0 1.0 3.0 0.00 0.00 0.00 83 1010.7
20260505040204 48 0 1.0 3.0 0.00 0.00 0.00 83 1010.7
20260505035705 48 0 1.0 2.0 0.00 0.00 0.00 82 1010.7
20260505035205 48 0 1.0 2.0 0.00 0.00 0.00 82 1010.7
20260505034704 48 0 1.0 3.0 0.00 0.00 0.00 82 1010.6
20260505034205 48 0 1.0 3.0 0.00 0.00 0.00 82 1010.7
20260505033205 48 0 0.0 2.0 0.00 0.00 0.00 81 1010.7
20260505032705 48 0 0.0 3.0 0.00 0.00 0.00 80 1010.8
20260505032204 49 0 0.0 3.0 0.00 0.00 0.00 80 1010.8
20260505031704 49 0 1.0 3.0 0.00 0.00 0.00 79 1010.7
20260505031204 49 0 2.0 3.0 0.00 0.00 0.00 79 1010.8
20260505030705 49 0 2.0 3.0 0.00 0.00 0.00 78 1010.9
20260505030205 50 0 2.0 3.0 0.00 0.00 0.00 77 1010.9
20260505025704 50 0 1.0 4.0 0.00 0.00 0.00 78 1011.0
20260505025205 50 0 1.0 4.0 0.00 0.00 0.00 77 1010.9
20260505024705 51 0 1.0 4.0 0.00 0.00 0.00 77 1011.0
20260505024205 50 0 1.0 4.0 0.00 0.00 0.00 77 1011.0
20260505023705 50 0 0.0 3.0 0.00 0.00 0.00 77 1011.0
20260505023204 50 0 1.0 3.0 0.00 0.00 0.00 76 1011.1
20260505022705 50 0 1.0 4.0 0.00 0.00 0.00 76 1011.1
20260505022204 50 0 0.0 4.0 0.00 0.00 0.00 76 1011.1
20260505021704 51 0 1.0 4.0 0.00 0.00 0.00 75 1011.2
20260505021205 50 0 1.0 2.0 0.00 0.00 0.00 76 1011.2
20260505020704 50 0 1.0 2.0 0.00 0.00 0.00 77 1011.1
20260505015704 50 0 1.0 2.0 0.00 0.00 0.00 77 1011.4
20260505015205 50 0 0.0 2.0 0.00 0.00 0.00 77 1011.4
20260505014705 50 0 0.0 2.0 0.00 0.00 0.00 77 1011.4
20260505014204 50 0 0.0 2.0 0.00 0.00 0.00 77 1011.4
20260505013705 50 0 0.0 2.0 0.00 0.00 0.00 76 1011.4
20260505013205 50 0 0.0 2.0 0.00 0.00 0.00 76 1011.4
20260505012705 50 0 0.0 3.0 0.00 0.00 0.00 76 1011.4
20260505012233 50 0 1.0 3.0 0.00 0.00 0.00 75 1011.3
20260505011704 51 0 1.0 3.0 0.00 0.00 0.00 74 1011.3
20260505011204 51 0 1.0 2.0 0.00 0.00 0.00 75 1011.3
20260505010704 51 0 1.0 2.0 0.00 0.00 0.00 74 1011.4
20260505010205 51 0 1.0 2.0 0.00 0.00 0.00 76 1011.4
20260505005704 50 0 0.0 2.0 0.00 0.00 0.00 76 1011.4
20260505005205 50 0 0.0 2.0 0.00 0.00 0.00 75 1011.5
20260505004704 51 0 0.0 2.0 0.00 0.00 0.00 74 1011.4
20260505004205 51 0 0.0 3.0 0.00 0.00 0.00 74 1011.5
20260505003704 51 0 1.0 4.0 0.00 0.00 0.00 73 1011.5
20260505003205 52 0 1.0 4.0 0.00 0.00 0.00 72 1011.5
20260505002704 52 0 1.0 4.0 0.00 0.00 0.00 72 1011.6
20260505002205 51 0 1.0 2.0 0.00 0.00 0.00 74 1011.6
20260505001705 51 0 0.0 2.0 0.00 0.00 0.00 74 1011.6
20260505001205 51 0 0.0 2.0 0.00 0.00 0.00 73 1011.7
20260505000705 51 0 0.0 2.0 0.00 0.00 0.00 73 1011.7
20260505000204 51 0 0.0 2.0 0.00 0.00 0.00 74 1011.7
20260504235705 51 0 1.0 3.0 0.00 0.00 0.00 74 1011.8
20260504234704 52 0 1.0 3.0 0.00 0.00 0.00 73 1011.9
20260504233704 53 0 0.0 2.0 0.00 0.00 0.00 71 1011.9
20260504233205 52 0 0.0 2.0 0.00 0.00 0.00 72 1012.0
20260504232704 52 0 0.0 2.0 0.00 0.00 0.00 72 1012.0
20260504231704 52 0 0.0 4.0 0.00 0.00 0.00 73 1012.1
20260504231205 52 0 1.0 4.0 0.00 0.00 0.00 72 1012.1
20260504230705 52 0 1.0 3.0 0.00 0.00 0.00 74 1012.2
20260504230204 52 0 0.0 2.0 0.00 0.00 0.00 74 1012.1
20260504225705 52 0 0.0 2.0 0.00 0.00 0.00 74 1012.1
20260504225204 52 0 0.0 3.0 0.00 0.00 0.00 73 1012.1
20260504224705 53 0 1.0 3.0 0.00 0.00 0.00 72 1012.1
20260504224205 53 0 1.0 4.0 0.00 0.00 0.00 71 1012.2
20260504223705 54 0 1.0 4.0 0.00 0.00 0.00 71 1012.2
20260504223204 54 0 1.0 4.0 0.00 0.00 0.00 70 1012.3
20260504222705 53 0 1.0 3.0 0.00 0.00 0.00 73 1012.3
20260504222204 53 0 1.0 3.0 0.00 0.00 0.00 73 1012.3
20260504221705 53 0 1.0 3.0 0.00 0.00 0.00 73 1012.3
20260504221205 53 0 0.0 2.0 0.00 0.00 0.00 73 1012.3
20260504220705 53 0 0.0 1.0 0.00 0.00 0.00 73 1012.3
20260504220204 53 0 0.0 2.0 0.00 0.00 0.00 72 1012.3
20260504215705 54 0 0.0 2.0 0.00 0.00 0.00 72 1012.4
20260504215204 54 0 0.0 3.0 0.00 0.00 0.00 72 1012.3
20260504214704 54 0 1.0 3.0 0.00 0.00 0.00 71 1012.3
20260504214205 55 0 1.0 3.0 0.00 0.00 0.00 71 1012.3
20260504212704 55 0 0.0 1.0 0.00 0.00 0.00 71 1012.3
20260504212205 55 0 0.0 1.0 0.00 0.00 0.00 70 1012.3
20260504211704 56 0 0.0 2.0 0.00 0.00 0.00 70 1012.4
20260504211205 56 0 0.0 2.0 0.00 0.00 0.00 70 1012.4
20260504210722 56 0 0.0 1.0 0.00 0.00 0.00 69 1012.4
20260504210204 56 0 0.0 2.0 0.00 0.00 0.00 69 1012.4
20260504205704 57 0 1.0 2.0 0.00 0.00 0.00 69 1012.3
20260504205204 57 0 1.0 2.0 0.00 0.00 0.00 68 1012.3
20260504204704 57 0 0.0 2.0 0.00 0.00 0.00 68 1012.3
20260504204205 58 0 0.0 2.0 0.00 0.00 0.00 67 1012.3
20260504203704 58 0 0.0 2.0 0.00 0.00 0.00 66 1012.3
20260504203205 58 0 0.0 1.0 0.00 0.00 0.00 66 1012.3
20260504202704 59 0 0.0 1.0 0.00 0.00 0.00 66 1012.3
20260504202205 59 0 0.0 2.0 0.00 0.00 0.00 65 1012.3
20260504201705 59 0 0.0 2.0 0.00 0.00 0.00 65 1012.3
20260504201205 59 0 0.0 2.0 0.00 0.00 0.00 64 1012.3
20260504200204 60 0 0.0 2.0 0.00 0.00 0.00 63 1012.2
20260504195705 60 0 0.0 2.0 0.00 0.00 0.00 63 1012.3
20260504195204 61 0 0.0 2.0 0.00 0.00 0.00 62 1012.2
20260504194705 61 0 1.0 2.0 0.00 0.00 0.00 61 1012.2
20260504194204 61 0 1.0 2.0 0.00 0.00 0.00 61 1012.2
20260504193704 62 0 0.0 2.0 0.00 0.00 0.00 60 1012.2
20260504193204 62 0 1.0 2.0 0.00 0.00 0.00 59 1012.0
20260504192705 63 0 0.0 2.0 0.00 0.00 0.00 58 1012.0
20260504192205 63 0 0.0 2.0 0.00 0.00 0.00 58 1012.0
20260504191704 63 0 0.0 2.0 0.00 0.00 0.00 56 1012.0
20260504190705 64 0 0.0 1.0 0.00 0.00 0.00 56 1011.8
20260504190204 64 0 0.0 1.0 0.00 0.00 0.00 55 1011.7
20260504185705 65 0 0.0 2.0 0.00 0.00 0.00 54 1011.7
20260504185204 66 0 1.0 2.0 0.00 0.00 0.00 52 1011.7
20260504184705 66 0 1.0 2.0 0.00 0.00 0.00 51 1011.6
20260504184204 66 0 0.0 2.0 0.00 0.00 0.00 50 1011.5
20260504183705 67 0 0.0 1.0 0.00 0.00 0.00 50 1011.4
20260504182204 69 0 1.0 4.0 0.00 0.00 0.00 47 1011.3
20260504181705 70 0 1.0 4.0 0.00 0.00 0.00 45 1011.3
20260504181205 70 0 1.0 4.0 0.00 0.00 0.00 44 1011.3
20260504180205 71 0 1.0 5.0 0.00 0.00 0.00 42 1011.2
20260504175704 71 0 1.0 5.0 0.00 0.00 0.00 42 1011.3
20260504175205 72 0 2.0 6.0 0.00 0.00 0.00 41 1011.2
20260504174705 72 202 1.0 6.0 0.00 0.00 0.00 42 1011.2
20260504174204 72 194 1.0 6.0 0.00 0.00 0.00 42 1011.2
20260504173705 72 174 1.0 4.0 0.00 0.00 0.00 42 1011.1
20260504173205 72 236 1.0 4.0 0.00 0.00 0.00 44 1011.1
20260504172204 72 200 1.0 2.0 0.00 0.00 0.00 45 1011.1
20260504170704 73 0 0.0 2.0 0.00 0.00 0.00 42 1011.0
20260504170205 74 0 0.0 5.0 0.00 0.00 0.00 41 1011.1
20260504160205 78 173 3.0 8.0 0.00 0.00 0.00 33 1011.3